Location: Namasale
(1.5000°N, 32.6167°E)
Time: 23:11:17
(UTC+00:00)

Vanguard 3 - Pass Details

Date: 22 April 2021
Orbit: 507 x 3262 km, 33.4° (Epoch: 17 May)

Event Time Altitude Azimuth Distance (km) Brightness Sun altitude
Rises 19:35:44 0° 246° (WSW) 6,569 12.1 -54.3°
Reaches altitude 10° 19:40:58 10° 252° (WSW) 5,163 11.5 -55.5°
Enters shadow 19:48:52 32° 272° (W) 3,035 10.1 -57.3°
